AFR399Y LFLL-LFPG

Flight info

Callsign AFR399Y
Flight time N/A
Altitude 30000
Route MOKIP DCT ARFOZ DCT TINIL
Aircraft B772/H-SDE2E3FGHIJ5LORVWXY/LB1D1

Departure

Time 2026-05-05 19:51
Airport Lyon Saint-Exupéry Airport (LFLL)

Arrival

Time N/A
Airport Charles de Gaulle International Airport (LFPG)
Time Latitude Longitude Altitude Speed Heading
2026-05-05 19:24 45.71828 5.08058 801 ft 0 kts 297°
2026-05-05 19:40 45.71828 5.08059 801 ft 1 kts 297°
2026-05-05 19:40 45.71816 5.08090 801 ft 4 kts 300°
2026-05-05 19:40 45.71802 5.08122 801 ft 4 kts 311°
2026-05-05 19:40 45.71783 5.08143 802 ft 4 kts 359°
2026-05-05 19:41 45.71763 5.08133 802 ft 4 kts 31°
2026-05-05 19:41 45.71743 5.08115 802 ft 1 kts 31°
2026-05-05 19:41 45.71742 5.08115 802 ft 1 kts 31°
2026-05-05 19:45 45.71778 5.08146 802 ft 12 kts 29°
2026-05-05 19:45 45.71859 5.08190 802 ft 12 kts 15°
2026-05-05 19:45 45.71942 5.08221 801 ft 12 kts 15°
2026-05-05 19:45 45.71968 5.08307 803 ft 17 kts 104°
2026-05-05 19:46 45.71976 5.08453 806 ft 15 kts 28°
2026-05-05 19:46 45.72088 5.08445 807 ft 22 kts 355°
2026-05-05 19:46 45.72287 5.08420 804 ft 30 kts 355°
2026-05-05 19:46 45.72493 5.08396 801 ft 30 kts 355°
2026-05-05 19:47 45.72700 5.08371 796 ft 30 kts 355°
2026-05-05 19:47 45.72856 5.08351 795 ft 16 kts 354°
2026-05-05 19:47 45.73037 5.08330 792 ft 30 kts 356°
2026-05-05 19:47 45.73245 5.08304 789 ft 30 kts 355°
2026-05-05 19:48 45.73453 5.08280 784 ft 30 kts 355°
2026-05-05 19:48 45.73660 5.08259 783 ft 29 kts
2026-05-05 19:48 45.73717 5.08461 782 ft 23 kts 104°
2026-05-05 19:48 45.73700 5.08557 781 ft 0 kts 105°
2026-05-05 19:49 45.73700 5.08558 781 ft 0 kts 105°
2026-05-05 19:50 45.73678 5.08664 781 ft 20 kts 113°
2026-05-05 19:50 45.73600 5.08727 784 ft 11 kts 178°
2026-05-05 19:50 45.73593 5.08728 784 ft 0 kts 175°
2026-05-05 19:51 45.73449 5.08746 787 ft 60 kts 175°
2026-05-05 19:51 45.72727 5.08834 798 ft 143 kts 175°
2026-05-05 19:51 45.71673 5.08954 1438 ft 145 kts 176°
2026-05-05 19:51 45.70633 5.09082 2163 ft 156 kts 175°
2026-05-05 19:52 45.69504 5.09228 2875 ft 174 kts 177°
2026-05-05 19:52 45.68187 5.09394 3267 ft 205 kts 177°
2026-05-05 19:52 45.66690 5.09757 3576 ft 230 kts 160°
2026-05-05 19:52 45.65375 5.11205 4119 ft 257 kts 129°
2026-05-05 19:53 45.64700 5.13646 4839 ft 274 kts 97°
2026-05-05 19:53 45.64958 5.16319 5683 ft 282 kts 67°
2026-05-05 19:53 45.66135 5.18569 6489 ft 288 kts 36°
2026-05-05 19:53 45.67963 5.19657 7370 ft 286 kts
2026-05-05 19:54 45.69967 5.19831 8044 ft 293 kts 359°
2026-05-05 19:54 45.72020 5.19880 8832 ft 296 kts 360°
2026-05-05 19:54 45.74091 5.19972 9616 ft 297 kts 358°
2026-05-05 19:54 45.76101 5.19382 10093 ft 300 kts 332°
2026-05-05 19:55 45.77944 5.17874 10241 ft 317 kts 326°
2026-05-05 19:55 45.79911 5.16185 10561 ft 337 kts 326°
2026-05-05 19:55 45.81923 5.14479 11237 ft 346 kts 327°
2026-05-05 19:55 45.84055 5.12683 12176 ft 351 kts 327°
2026-05-05 19:56 45.86135 5.10937 13230 ft 353 kts 327°
2026-05-05 19:56 45.88275 5.09143 13841 ft 359 kts 327°
2026-05-05 19:56 45.90437 5.07330 13884 ft 362 kts 327°
2026-05-05 19:56 45.92673 5.05729 13871 ft 360 kts 340°
2026-05-05 19:57 45.95177 5.05135 13887 ft 369 kts 352°
2026-05-05 19:57 45.96873 5.04897 13882 ft 371 kts 352°
2026-05-05 19:57 46.00306 5.04350 13869 ft 369 kts 351°
2026-05-05 19:57 46.02856 5.03913 13867 ft 368 kts 351°
2026-05-05 19:58 46.05387 5.03464 13873 ft 366 kts 351°
2026-05-05 19:58 46.07914 5.03008 13869 ft 366 kts 351°
2026-05-05 19:58 46.10392 5.02558 13868 ft 365 kts 351°
2026-05-05 19:58 46.12944 5.02092 13869 ft 365 kts 351°
2026-05-05 19:59 46.15433 5.01637 13866 ft 365 kts 350°
2026-05-05 19:59 46.17950 5.01175 13867 ft 365 kts 350°
2026-05-05 19:59 46.20486 5.00709 14332 ft 370 kts 351°
2026-05-05 19:59 46.23048 5.00239 15325 ft 373 kts 351°
2026-05-05 20:00 46.25637 4.99763 16316 ft 376 kts 351°
2026-05-05 20:00 46.28242 4.99283 17247 ft 381 kts 351°
2026-05-05 20:00 46.30887 4.98871 18033 ft 383 kts 357°
2026-05-05 20:00 46.33554 4.99522 18586 ft 397 kts 21°
2026-05-05 20:01 46.35974 5.01467 19250 ft 399 kts 33°
2026-05-05 20:01 46.38345 5.03650 19879 ft 407 kts 32°
2026-05-05 20:01 46.40770 5.05798 20599 ft 412 kts 31°
2026-05-05 20:01 46.43230 5.07929 21317 ft 413 kts 29°
2026-05-05 20:02 46.45892 5.09418 21802 ft 421 kts
2026-05-05 20:02 46.48816 5.09583 22324 ft 421 kts 356°
2026-05-05 20:02 46.51779 5.09470 22852 ft 430 kts 357°
2026-05-05 20:02 46.54786 5.09431 23558 ft 434 kts 358°
2026-05-05 20:03 46.57812 5.09427 24183 ft 437 kts 358°
2026-05-05 20:03 46.60868 5.09438 24833 ft 440 kts 358°
2026-05-05 20:03 46.63943 5.09452 25468 ft 443 kts 358°
2026-05-05 20:03 46.67033 5.09464 26083 ft 447 kts 358°
2026-05-05 20:04 46.70165 5.09475 26702 ft 451 kts 358°
2026-05-05 20:04 46.73308 5.09484 27389 ft 452 kts 358°
2026-05-05 20:04 46.76444 5.09186 28205 ft 448 kts 348°
2026-05-05 20:04 46.79412 5.08075 29081 ft 441 kts 336°
2026-05-05 20:05 46.82146 5.06237 29815 ft 438 kts 328°
2026-05-05 20:05 46.87533 5.02094 29877 ft 435 kts 328°
2026-05-05 20:06 46.92888 4.98002 29880 ft 435 kts 329°
2026-05-05 20:06 46.98284 4.93924 29878 ft 436 kts 329°
2026-05-05 20:07 47.03662 4.89882 29878 ft 430 kts 330°
2026-05-05 20:07 47.08907 4.85939 29879 ft 426 kts 330°
2026-05-05 20:08 47.14182 4.81959 29862 ft 427 kts 330°
2026-05-05 20:08 47.19465 4.77965 29865 ft 427 kts 330°
2026-05-05 20:09 47.24744 4.73966 29864 ft 427 kts 330°
2026-05-05 20:09 47.29991 4.69983 29383 ft 424 kts 330°
2026-05-05 20:09 47.32623 4.67980 28912 ft 427 kts 330°
2026-05-05 20:10 47.35223 4.66000 28575 ft 427 kts 330°
2026-05-05 20:10 47.37854 4.63992 28316 ft 423 kts 330°
2026-05-05 20:10 47.40402 4.62040 27702 ft 406 kts 330°
2026-05-05 20:10 47.42941 4.60089 27027 ft 415 kts 329°
2026-05-05 20:11 47.45505 4.58115 26702 ft 416 kts 330°
2026-05-05 20:11 47.48036 4.56171 26333 ft 408 kts 330°
2026-05-05 20:11 47.50573 4.54223 25955 ft 411 kts 331°
2026-05-05 20:11 47.53100 4.52282 25733 ft 409 kts 330°
2026-05-05 20:12 47.55576 4.50382 25606 ft 406 kts 330°
2026-05-05 20:12 47.58080 4.48458 25426 ft 403 kts 330°
2026-05-05 20:12 47.60568 4.46545 25210 ft 402 kts 330°
2026-05-05 20:12 47.63047 4.44636 24996 ft 402 kts 330°
2026-05-05 20:13 47.65525 4.42725 24790 ft 401 kts 330°
2026-05-05 20:13 47.67999 4.40815 24595 ft 399 kts 330°
2026-05-05 20:13 47.70439 4.38930 24321 ft 389 kts 330°
2026-05-05 20:13 47.72835 4.37078 23718 ft 390 kts 330°
2026-05-05 20:14 47.75231 4.35222 23117 ft 387 kts 330°
2026-05-05 20:14 47.77580 4.33400 22414 ft 385 kts 330°
2026-05-05 20:14 47.79944 4.31565 21765 ft 383 kts 330°
2026-05-05 20:14 47.82322 4.29717 21328 ft 387 kts 330°